Time,TemperatureF,DewpointF,PressureIn,WindDirection,WindDirectionDegrees,WindSpeedMPH,WindSpeedGustMPH,Humidity,HourlyPrecipIn,Conditions,Clouds,dailyrainin,SoftwareType,DateUTC
2013-04-05 00:02:00,52.0,22.0,30.03,ESE,112,4.0,6.0,31,0.00,,,0.00,,2013-04-05 06:02:00,
2013-04-05 00:12:00,52.0,22.0,30.03,ESE,112,4.0,6.0,31,0.00,,,0.00,,2013-04-05 06:12:00,
2013-04-05 00:21:00,54.0,22.0,30.03,SE,135,3.0,4.0,29,0.00,,,0.00,,2013-04-05 06:21:00,
2013-04-05 00:32:00,53.0,23.0,30.03,East,90,3.0,4.0,31,0.00,,,0.00,,2013-04-05 06:32:00,
2013-04-05 00:42:00,53.0,23.0,30.03,East,90,3.0,4.0,31,0.00,,,0.00,,2013-04-05 06:42:00,
2013-04-05 00:52:00,51.0,23.0,30.03,South,180,1.0,2.0,33,0.00,,,0.00,,2013-04-05 06:52:00,
2013-04-05 01:01:00,50.0,21.0,30.02,SSE,157,2.0,3.0,32,0.00,,,0.00,,2013-04-05 07:01:00,
2013-04-05 01:11:00,50.0,21.0,30.02,SSE,157,2.0,3.0,32,0.00,,,0.00,,2013-04-05 07:11:00,
2013-04-05 01:22:00,53.0,21.0,30.02,SSE,157,2.0,2.0,28,0.00,,,0.00,,2013-04-05 07:22:00,
2013-04-05 01:31:00,49.0,23.0,30.02,South,180,3.0,5.0,35,0.00,,,0.00,,2013-04-05 07:31:00,
2013-04-05 01:42:00,49.0,23.0,30.02,South,180,3.0,5.0,35,0.00,,,0.00,,2013-04-05 07:42:00,
2013-04-05 01:52:00,50.0,21.0,30.01,SE,135,3.0,4.0,31,0.00,,,0.00,,2013-04-05 07:52:00,
2013-04-05 02:02:00,52.0,20.0,30.01,SE,135,2.0,4.0,28,0.00,,,0.00,,2013-04-05 08:02:00,
2013-04-05 02:12:00,52.0,20.0,30.01,SE,135,2.0,4.0,28,0.00,,,0.00,,2013-04-05 08:12:00,
2013-04-05 02:21:00,49.0,23.0,30.00,SSE,157,0.0,1.0,35,0.00,,,0.00,,2013-04-05 08:21:00,
2013-04-05 02:31:00,50.0,23.0,30.00,North,360,3.0,4.0,34,0.00,,,0.00,,2013-04-05 08:31:00,
2013-04-05 02:41:00,50.0,23.0,30.00,North,360,3.0,4.0,34,0.00,,,0.00,,2013-04-05 08:41:00,
2013-04-05 02:52:00,51.0,23.0,29.98,East,90,5.0,6.0,33,0.00,,,0.00,,2013-04-05 08:52:00,
2013-04-05 03:01:00,50.0,24.0,29.98,WNW,292,2.0,4.0,36,0.00,,,0.00,,2013-04-05 09:01:00,
2013-04-05 03:11:00,50.0,24.0,29.98,WNW,292,2.0,4.0,36,0.00,,,0.00,,2013-04-05 09:11:00,
2013-04-05 03:21:00,50.0,22.0,29.98,SW,225,1.0,2.0,33,0.00,,,0.00,,2013-04-05 09:21:00,
2013-04-05 03:32:00,50.0,21.0,29.98,SW,225,0.0,0.0,32,0.00,,,0.00,,2013-04-05 09:32:00,
2013-04-05 03:42:00,50.0,21.0,29.98,SW,225,0.0,0.0,32,0.00,,,0.00,,2013-04-05 09:42:00,
2013-04-05 03:52:00,49.0,22.0,29.98,SW,225,0.0,1.0,34,0.00,,,0.00,,2013-04-05 09:52:00,
2013-04-05 04:02:00,49.0,22.0,29.97,SW,225,0.0,1.0,34,0.00,,,0.00,,2013-04-05 10:02:00,
2013-04-05 04:12:00,49.0,22.0,29.97,SW,225,0.0,1.0,34,0.00,,,0.00,,2013-04-05 10:12:00,
2013-04-05 04:22:00,50.0,21.0,29.97,South,180,0.0,0.0,32,0.00,,,0.00,,2013-04-05 10:22:00,
2013-04-05 04:32:00,49.0,20.0,29.97,South,180,0.0,0.0,31,0.00,,,0.00,,2013-04-05 10:32:00,
2013-04-05 04:42:00,49.0,20.0,29.97,South,180,0.0,0.0,31,0.00,,,0.00,,2013-04-05 10:42:00,
2013-04-05 04:52:00,49.0,23.0,29.96,South,180,1.0,2.0,35,0.00,,,0.00,,2013-04-05 10:52:00,
2013-04-05 05:02:00,46.0,23.0,29.96,SSW,202,2.0,3.0,40,0.00,,,0.00,,2013-04-05 11:02:00,
2013-04-05 05:21:00,46.0,22.0,29.95,SSE,157,1.0,2.0,39,0.00,,,0.00,,2013-04-05 11:21:00,
2013-04-05 05:32:00,46.0,22.0,29.95,SW,225,0.0,0.0,38,0.00,,,0.00,,2013-04-05 11:32:00,
2013-04-05 05:42:00,46.0,22.0,29.95,SW,225,0.0,0.0,38,0.00,,,0.00,,2013-04-05 11:42:00,
2013-04-05 05:51:00,47.0,22.0,29.94,South,180,2.0,2.0,37,0.00,,,0.00,,2013-04-05 11:51:00,
2013-04-05 06:01:00,49.0,22.0,29.95,East,90,0.0,1.0,34,0.00,,,0.00,,2013-04-05 12:01:00,
2013-04-05 06:11:00,49.0,22.0,29.95,East,90,0.0,1.0,34,0.00,,,0.00,,2013-04-05 12:11:00,
2013-04-05 06:21:00,47.0,22.0,29.95,SW,225,1.0,2.0,37,0.00,,,0.00,,2013-04-05 12:21:00,
2013-04-05 06:32:00,45.0,22.0,29.94,South,180,3.0,4.0,40,0.00,,,0.00,,2013-04-05 12:32:00,
2013-04-05 06:42:00,45.0,22.0,29.94,South,180,3.0,4.0,40,0.00,,,0.00,,2013-04-05 12:42:00,
2013-04-05 06:51:00,46.0,22.0,29.94,South,180,3.0,4.0,39,0.00,,,0.00,,2013-04-05 12:51:00,
2013-04-05 07:01:00,45.0,22.0,29.94,SW,225,2.0,3.0,39,0.00,,,0.00,,2013-04-05 13:01:00,
2013-04-05 07:11:00,45.0,22.0,29.94,SW,225,2.0,3.0,39,0.00,,,0.00,,2013-04-05 13:11:00,
2013-04-05 07:21:00,45.0,22.0,29.93,ESE,112,3.0,4.0,40,0.00,,,0.00,,2013-04-05 13:21:00,
2013-04-05 07:31:00,45.0,22.0,29.93,South,180,2.0,2.0,40,0.00,,,0.00,,2013-04-05 13:31:00,
2013-04-05 07:42:00,45.0,22.0,29.93,South,180,2.0,2.0,40,0.00,,,0.00,,2013-04-05 13:42:00,
2013-04-05 07:52:00,46.0,23.0,29.95,SW,225,2.0,4.0,40,0.00,,,0.00,,2013-04-05 13:52:00,
2013-04-05 08:01:00,46.0,26.0,29.95,SSW,202,0.0,0.0,45,0.00,,,0.00,,2013-04-05 14:01:00,
2013-04-05 08:11:00,46.0,26.0,29.95,SSW,202,0.0,0.0,45,0.00,,,0.00,,2013-04-05 14:11:00,
2013-04-05 08:42:00,49.0,25.0,29.95,ESE,112,2.0,2.0,38,0.00,,,0.00,,2013-04-05 14:42:00,
2013-04-05 08:51:00,49.0,24.0,29.96,West,270,2.0,3.0,37,0.00,,,0.00,,2013-04-05 14:51:00,
2013-04-05 09:01:00,51.0,24.0,29.96,WSW,247,1.0,1.0,35,0.00,,,0.00,,2013-04-05 15:01:00,
2013-04-05 09:11:00,51.0,24.0,29.96,WSW,247,1.0,1.0,35,0.00,,,0.00,,2013-04-05 15:11:00,
2013-04-05 09:22:00,51.0,26.0,29.96,SW,225,0.0,0.0,37,0.00,,,0.00,,2013-04-05 15:22:00,
2013-04-05 09:32:00,52.0,26.0,29.97,SW,225,0.0,0.0,36,0.00,,,0.00,,2013-04-05 15:32:00,
2013-04-05 09:42:00,52.0,26.0,29.97,SW,225,0.0,0.0,36,0.00,,,0.00,,2013-04-05 15:42:00,
2013-04-05 09:52:00,52.0,26.0,29.98,SSW,202,2.0,3.0,36,0.00,,,0.00,,2013-04-05 15:52:00,
2013-04-05 10:02:00,53.0,27.0,29.98,South,180,3.0,4.0,36,0.00,,,0.00,,2013-04-05 16:02:00,
2013-04-05 10:12:00,53.0,27.0,29.98,South,180,3.0,4.0,36,0.00,,,0.00,,2013-04-05 16:12:00,
2013-04-05 10:22:00,54.0,26.0,29.98,SSE,157,2.0,3.0,33,0.00,,,0.00,,2013-04-05 16:22:00,
2013-04-05 10:32:00,55.0,26.0,29.98,SSE,157,3.0,5.0,32,0.00,,,0.00,,2013-04-05 16:32:00,
2013-04-05 10:41:00,55.0,26.0,29.98,SSE,157,3.0,5.0,32,0.00,,,0.00,,2013-04-05 16:41:00,
2013-04-05 10:52:00,56.0,25.0,29.98,SSE,157,4.0,6.0,30,0.00,,,0.00,,2013-04-05 16:52:00,
2013-04-05 11:02:00,62.0,25.0,30.01,SSW,202,7.0,9.0,24,0.00,,,0.00,,2013-04-05 17:02:00,
2013-04-05 11:22:00,63.0,22.0,30.02,SSW,202,4.0,4.0,21,0.00,,,0.00,,2013-04-05 17:22:00,
2013-04-05 11:31:00,65.0,22.0,30.02,SSW,202,6.0,9.0,19,0.00,,,0.00,,2013-04-05 17:31:00,
2013-04-05 11:51:00,66.0,24.0,30.03,SSW,202,10.0,14.0,20,0.00,,,0.00,,2013-04-05 17:51:00,
2013-04-05 12:01:00,66.0,25.0,30.02,SSW,202,12.0,14.0,21,0.00,,,0.00,,2013-04-05 18:01:00,
2013-04-05 12:21:00,65.0,22.0,30.02,SSW,202,13.0,17.0,19,0.00,,,0.00,,2013-04-05 18:21:00,
2013-04-05 12:31:00,65.0,22.0,30.02,West,270,3.0,4.0,19,0.00,,,0.00,,2013-04-05 18:31:00,
2013-04-05 12:42:00,65.0,22.0,30.02,West,270,3.0,4.0,19,0.00,,,0.00,,2013-04-05 18:42:00,
2013-04-05 12:52:00,64.0,21.0,30.00,SW,225,13.0,16.0,19,0.00,,,0.00,,2013-04-05 18:52:00,
2013-04-05 13:00:00,64.0,22.0,29.98,SW,225,13.0,19.0,20,0.00,,,0.00,,2013-04-05 19:00:00,
2013-04-05 13:01:00,64.0,22.0,30.00,WSW,247,6.0,12.0,20,0.00,,,0.00,,2013-04-05 19:01:00,
2013-04-05 13:31:00,64.0,22.0,29.98,SW,225,13.0,19.0,20,0.00,,,0.00,,2013-04-05 19:31:00,
2013-04-05 13:41:00,64.0,22.0,29.98,SW,225,13.0,19.0,20,0.00,,,0.00,,2013-04-05 19:41:00,
2013-04-05 13:51:00,64.0,22.0,29.98,SW,225,13.0,19.0,20,0.00,,,0.00,,2013-04-05 19:51:00,
2013-04-05 14:22:00,65.0,24.0,29.98,WSW,247,8.0,13.0,21,0.00,,,0.00,,2013-04-05 20:22:00,
2013-04-05 14:32:00,65.0,24.0,29.98,WSW,247,8.0,13.0,21,0.00,,,0.00,,2013-04-05 20:32:00,
2013-04-05 14:42:00,65.0,24.0,29.98,WSW,247,8.0,13.0,21,0.00,,,0.00,,2013-04-05 20:42:00,
2013-04-05 14:52:00,67.0,27.0,29.98,SW,225,9.0,14.0,22,0.00,,,0.00,,2013-04-05 20:52:00,
2013-04-05 15:02:00,69.0,29.0,29.98,SSW,202,17.0,20.0,22,0.00,,,0.00,,2013-04-05 21:02:00,
2013-04-05 15:12:00,69.0,29.0,29.98,SSW,202,17.0,20.0,22,0.00,,,0.00,,2013-04-05 21:12:00,
2013-04-05 15:22:00,69.0,29.0,29.98,SW,225,15.0,19.0,22,0.00,,,0.00,,2013-04-05 21:22:00,
2013-04-05 15:32:00,68.0,28.0,29.98,SW,225,10.0,17.0,22,0.00,,,0.00,,2013-04-05 21:32:00,
2013-04-05 15:42:00,68.0,28.0,29.98,SW,225,10.0,17.0,22,0.00,,,0.00,,2013-04-05 21:42:00,
2013-04-05 15:52:00,67.0,27.0,29.97,SW,225,10.0,13.0,22,0.00,,,0.00,,2013-04-05 21:52:00,
2013-04-05 16:02:00,65.0,26.0,29.95,ESE,112,6.0,9.0,23,0.00,,,0.00,,2013-04-05 22:02:00,
2013-04-05 16:12:00,65.0,26.0,29.95,ESE,112,6.0,9.0,23,0.00,,,0.00,,2013-04-05 22:12:00,
2013-04-05 16:22:00,66.0,26.0,29.94,WSW,247,4.0,7.0,22,0.00,,,0.00,,2013-04-05 22:22:00,
2013-04-05 16:32:00,66.0,25.0,29.94,SSW,202,16.0,20.0,21,0.00,,,0.00,,2013-04-05 22:32:00,
2013-04-05 16:42:00,66.0,25.0,29.94,SSW,202,16.0,20.0,21,0.00,,,0.00,,2013-04-05 22:42:00,
2013-04-05 16:52:00,68.0,25.0,29.94,SW,225,13.0,20.0,20,0.00,,,0.00,,2013-04-05 22:52:00,
2013-04-05 17:01:00,66.0,24.0,29.93,SW,225,16.0,24.0,20,0.00,,,0.00,,2013-04-05 23:01:00,
2013-04-05 17:11:00,66.0,24.0,29.93,SW,225,16.0,24.0,20,0.00,,,0.00,,2013-04-05 23:11:00,
2013-04-05 17:21:00,64.0,23.0,29.94,West,270,14.0,21.0,21,0.00,,,0.00,,2013-04-05 23:21:00,
2013-04-05 17:31:00,63.0,27.0,29.92,SW,225,35.0,48.0,25,0.00,,,0.00,,2013-04-05 23:31:00,
2013-04-05 17:41:00,63.0,27.0,29.92,SW,225,35.0,48.0,25,0.00,,,0.00,,2013-04-05 23:41:00,
2013-04-05 17:52:00,58.0,30.0,29.94,SW,225,10.0,19.0,34,0.00,,,0.00,,2013-04-05 23:52:00,
2013-04-05 18:02:00,61.0,29.0,29.93,SSW,202,0.0,0.0,29,0.00,,,0.00,,2013-04-06 00:02:00,
2013-04-05 18:11:00,61.0,29.0,29.93,SSW,202,0.0,0.0,29,0.00,,,0.00,,2013-04-06 00:11:00,
2013-04-05 18:21:00,60.0,29.0,29.92,SE,135,1.0,2.0,31,0.00,,,0.00,,2013-04-06 00:21:00,
2013-04-05 18:32:00,60.0,28.0,29.92,South,180,2.0,4.0,30,0.00,,,0.00,,2013-04-06 00:32:00,
2013-04-05 18:41:00,60.0,28.0,29.92,South,180,2.0,4.0,30,0.00,,,0.00,,2013-04-06 00:41:00,
2013-04-05 18:51:00,61.0,26.0,29.92,West,270,10.0,15.0,26,0.00,,,0.00,,2013-04-06 00:51:00,
2013-04-05 19:01:00,62.0,27.0,29.92,WNW,292,13.0,21.0,26,0.00,,,0.00,,2013-04-06 01:01:00,
2013-04-05 19:21:00,59.0,28.0,29.93,NW,315,8.0,10.0,31,0.00,,,0.00,,2013-04-06 01:21:00,
2013-04-05 19:32:00,58.0,28.0,29.92,NW,315,3.0,4.0,32,0.00,,,0.00,,2013-04-06 01:32:00,
2013-04-05 19:41:00,58.0,28.0,29.92,NW,315,3.0,4.0,32,0.00,,,0.00,,2013-04-06 01:41:00,
2013-04-05 19:52:00,58.0,29.0,29.92,NNW,337,3.0,4.0,33,0.00,,,0.00,,2013-04-06 01:52:00,
2013-04-05 20:01:00,57.0,28.0,29.92,NNW,337,2.0,3.0,33,0.00,,,0.00,,2013-04-06 02:01:00,
2013-04-05 20:11:00,57.0,28.0,29.92,NNW,337,2.0,3.0,33,0.00,,,0.00,,2013-04-06 02:11:00,
2013-04-05 20:21:00,57.0,28.0,29.93,WNW,292,10.0,14.0,33,0.00,,,0.00,,2013-04-06 02:21:00,
2013-04-05 20:31:00,56.0,29.0,29.93,NW,315,4.0,6.0,36,0.00,,,0.00,,2013-04-06 02:31:00,
2013-04-05 20:42:00,56.0,29.0,29.93,NW,315,4.0,6.0,36,0.00,,,0.00,,2013-04-06 02:42:00,
2013-04-05 20:52:00,56.0,30.0,29.93,NW,315,8.0,12.0,37,0.00,,,0.00,,2013-04-06 02:52:00,
2013-04-05 21:01:00,56.0,30.0,29.92,North,360,2.0,4.0,37,0.00,,,0.00,,2013-04-06 03:01:00,
2013-04-05 21:11:00,56.0,30.0,29.92,North,360,2.0,4.0,37,0.00,,,0.00,,2013-04-06 03:11:00,
2013-04-05 21:21:00,55.0,30.0,29.93,West,270,4.0,5.0,38,0.00,,,0.00,,2013-04-06 03:21:00,
2013-04-05 21:32:00,55.0,31.0,29.94,NW,315,3.0,5.0,39,0.00,,,0.00,,2013-04-06 03:32:00,
2013-04-05 21:42:00,55.0,31.0,29.94,NW,315,3.0,5.0,39,0.00,,,0.00,,2013-04-06 03:42:00,
2013-04-05 21:52:00,55.0,31.0,29.95,NNW,337,2.0,4.0,39,0.00,,,0.00,,2013-04-06 03:52:00,
2013-04-05 22:02:00,55.0,31.0,29.95,NNW,337,1.0,2.0,40,0.00,,,0.00,,2013-04-06 04:02:00,
2013-04-05 22:12:00,55.0,31.0,29.95,NNW,337,1.0,2.0,40,0.00,,,0.00,,2013-04-06 04:12:00,
2013-04-05 22:22:00,55.0,31.0,29.96,NNW,337,3.0,4.0,40,0.00,,,0.00,,2013-04-06 04:22:00,
2013-04-05 22:32:00,53.0,31.0,29.95,North,360,1.0,2.0,42,0.00,,,0.00,,2013-04-06 04:32:00,
2013-04-05 22:42:00,53.0,31.0,29.95,North,360,1.0,2.0,42,0.00,,,0.00,,2013-04-06 04:42:00,
2013-04-05 22:52:00,53.0,31.0,29.95,North,360,1.0,2.0,43,0.00,,,0.00,,2013-04-06 04:52:00,
2013-04-05 23:01:00,53.0,31.0,29.94,North,360,2.0,2.0,43,0.00,,,0.00,,2013-04-06 05:01:00,
2013-04-05 23:11:00,53.0,31.0,29.94,North,360,2.0,2.0,43,0.00,,,0.00,,2013-04-06 05:11:00,
2013-04-05 23:21:00,52.0,31.0,29.95,North,360,1.0,2.0,44,0.00,,,0.00,,2013-04-06 05:21:00,
2013-04-05 23:32:00,51.0,30.0,29.94,North,360,1.0,2.0,45,0.00,,,0.00,,2013-04-06 05:32:00,
2013-04-05 23:42:00,51.0,30.0,29.94,North,360,1.0,2.0,45,0.00,,,0.00,,2013-04-06 05:42:00,
2013-04-05 23:51:00,50.0,29.0,29.94,SSW,202,2.0,2.0,45,0.00,,,0.00,,2013-04-06 05:51:00,